This demonstration page uses our WeatherBlox Daily Observations layout. Learn more.

Left ArrowRight Arrow

Hourly Observations for May 16, 2020

Temp ( °F °C ) Dew Point ( °F °C ) Humidity (%) Winds ( mph kmh ) Pressure ( in mb ) Visibility ( mi km ) Precip ( " mm )
12:53 am 00:53 Clear 62 16.7 52 11.1 70 70 N 3 6 29.95 1014 10 16 0.00 0.00
1:53 am 01:53 Clear 61 16.1 51 10.6 70 70 NW 3 6 29.93 1014 10 16 0.00 0.00
2:53 am 02:53 Clear 60 15.6 51 10.6 72 72 NNE 5 7 29.90 1012 10 16 0.00 0.00
3:53 am 03:53 Clear 57 13.9 51 10.6 81 81 NW 6 9 29.90 1013 10 16 0.00 0.00
4:53 am 04:53 Clear 57 13.9 52 11.1 83 83 Calm 29.89 1012 10 16 0.00 0.00
5:53 am 05:53 Sunny 56 13.3 51 10.6 84 84 Calm 29.89 1012 10 16 0.00 0.00
6:53 am 06:53 Sunny 57 13.9 51 10.6 81 81 NW 3 6 29.89 1012 10 16 0.00 0.00
7:53 am 07:53 Sunny 60 15.6 52 11.1 75 75 Calm 29.90 1012 10 16 0.00 0.00
8:53 am 08:53 Sunny 62 16.7 53 11.7 73 73 ESE 3 6 29.89 1012 10 16 0.00 0.00
9:53 am 09:53 Sunny 65 18.3 52 11.1 63 63 ESE 6 9 29.90 1013 10 16 0.00 0.00
10:53 am 10:53 Sunny 66 18.9 51 10.6 59 59 SE 6 9 29.89 1012 10 16 0.00 0.00
11:53 am 11:53 Sunny 67 19.4 53 11.7 61 61 Calm 29.89 1012 10 16 0.00 0.00
12:53 pm 12:53 Sunny 69 20.6 54 12.2 59 59 Calm 29.85 1011 10 16 0.00 0.00
1:53 pm 13:53 Sunny 73 22.8 55 12.8 53 53 ENE 3 6 29.82 1010 10 16 0.00 0.00
2:53 pm 14:53 Sunny 74 23.3 51 10.6 45 45 S 9 15 29.80 1009 10 16 0.00 0.00
3:53 pm 15:53 Sunny 73 22.8 49 9.4 43 43 SW 6 9 29.78 1009 10 16 0.00 0.00
4:53 pm 16:53 Cloudy 74 23.3 49 9.4 41 41 E 3 6 29.75 1008 10 16 0.00 0.00
5:53 pm 17:53 Cloudy 71 21.7 54 12.2 55 55 N 7 11 29.73 1007 10 16 0.00 0.00
6:53 pm 18:53 Cloudy with Light Rain 68 20 55 12.8 63 63 N 5 7 29.70 1006 10 16 0.00 0.00
7:53 pm 19:53 Cloudy with Light Rain 65 18.3 56 13.3 73 73 S 14 22 29.78 1008 10 16 0.07 1.78
8:53 pm 20:53 Cloudy with Light Rain 60 15.6 57 13.9 90 90 E 5 7 29.78 1009 10 16 0.08 2.03
9:53 pm 21:53 Cloudy with Light Rain 59 15 58 14.4 96 96 VRB 3 6 29.80 1009 10 16 0.14 3.56
10:46 pm 22:46 Cloudy with Light Rain 59 15 56 13.3 90 90 VRB 6 9 29.79 1009 10 16 0.03 0.76
10:53 pm 22:53 Cloudy 59 15 56 13.3 90 90 VRB 7 11 29.78 1008 10 16 0.03 0.76
11:35 pm 23:35 Cloudy with Light Rain 58 14.4 56 13.3 93 93 Calm 29.78 1008 10 16 0.03 0.76
11:53 pm 23:53 Cloudy with Light Rain 59 15 56 13.3 90 90 SSE 17 28 29.76 1008 10 16 0.04 1.02

Powered by AerisWeather